Location: Goettingen
(51.5300°N, 9.9433°E)
Time: 05:18:26
(UTC+02:00)

ISS - Pass Details

Date: 12 October 2018
Orbit: 403 x 408 km, 51.6° (Epoch: 21 October)

Event Time Altitude Azimuth Distance (km) Brightness Sun altitude
Rises 19:10:10 0° 281° (WNW) 2,339 1.9 -6.5°
Reaches altitude 10° 19:12:40 10° 262° (W) 1,474 0.8 -6.8°
Maximum altitude 19:15:01 18° 217° (SW) 1,074 -1.1 -7.2°
Drops below altitude 10° 19:17:22 10° 171° (S) 1,467 -1.1 -7.6°
Sets 19:19:51 0° 152° (SSE) 2,323 -0.2 -8.0°
